Home > Weather > Jyväskylä > Past weeks

Flag for Finland Past Weather in Jyväskylä, Finland — Yesterday and Last 2 Weeks

Now
72 °F

Passing clouds.


Feels Like: 77 °F
Forecast: 60 / 74 °F
Wind: 7 mph from West

Location: Jyvaskyla Airport

Current Time: Jul 28, 2016 at 3:34:56 PM

Latest Report: Jul 28, 2016 at 2:50 PM


Visibility: N/A

Pressure: 29.92 "Hg

Humidity: 47%

Dew Point: 50 °F

Location of JyväskyläLocation

Past Weather in Jyväskylä — Graph

°F

Jyväskylä Temperature Yesterday

Maximum temperature yesterday: 77 °F (at 3:20 PM)
Minimum temperature yesterday: 59 °F (at 4:50 AM)
Average temperature yesterday: 69 °F

High & Low Weather Summary for the Past Weeks

 TemperatureHumidityPressure
High81 °F (Jul 26, 3:20 PM)100% (Jul 14, 2:20 AM)30.12 "Hg (Jul 14, 2:20 AM)
Low48 °F (Jul 20, 2:20 AM)38% (Jul 18, 4:50 PM)29.56 "Hg (Jul 16, 2:50 AM)
Average64 °F78%29.93 "Hg
* Reported Jul 13 2:20 PM — Jul 28 2:20 PM, Jyväskylä, Weather by CustomWeather, © 2016

Note: Actual official high and low records may vary slightly from our data, if they occured in-between our weather recording intervals... More about our weather records

Advertising

Jyväskylä Weather History for the Previous 24 Hours

Scroll right to see more
 ConditionsComfort  
Time TempWeatherWind HumidityBarometerVisibility
2:20 PM
Thu, Jul 28
72 °FSunny.5 mph50%29.92 "Hg10 mi
1:50 PM73 °FPassing clouds.3 mph50%29.92 "HgN/A
1:20 PM72 °FPassing clouds.7 mph47%29.92 "HgN/A
12:50 PM70 °FPassing clouds.6 mph50%29.92 "HgN/A
12:20 PM70 °FPassing clouds.6 mph53%29.92 "HgN/A
11:50 AM68 °FPassing clouds.6 mph56%29.92 "HgN/A
11:20 AM68 °FPassing clouds.6 mph60%29.92 "HgN/A
10:50 AM66 °FPassing clouds.6 mph64%29.92 "HgN/A
10:20 AM66 °FPassing clouds.6 mph64%29.92 "HgN/A
9:50 AM66 °FSunny.6 mph64%29.92 "Hg10 mi
9:20 AM64 °FSunny.8 mph73%29.92 "Hg10 mi
8:50 AM63 °FPassing clouds.5 mph77%29.92 "HgN/A
8:20 AM63 °FPassing clouds.2 mph77%29.92 "HgN/A
7:50 AM59 °FSunny.2 mph88%29.92 "Hg10 mi
7:20 AM57 °FSunny.2 mph88%29.92 "Hg10 mi
6:50 AM55 °FSunny.No wind94%29.92 "Hg10 mi
6:20 AM54 °FSunny.1 mph94%29.92 "Hg10 mi
5:50 AM54 °FSunny.2 mph94%29.92 "Hg10 mi
5:20 AM52 °FClear.No wind100%29.92 "Hg10 mi
4:50 AM52 °FPassing clouds.No wind94%29.92 "HgN/A
4:20 AM54 °FCool.No wind94%29.92 "HgN/A
3:50 AM54 °FClear.2 mph88%29.92 "Hg10 mi
3:20 AM55 °FClear.No wind88%29.92 "Hg10 mi
2:50 AM55 °FCool.2 mph94%29.92 "HgN/A
2:20 AM57 °FClear.1 mph88%29.92 "Hg10 mi
1:50 AM57 °FPassing clouds.No wind88%29.92 "HgN/A
1:20 AM57 °FCool.No wind88%29.92 "HgN/A
12:50 AM59 °FClear.2 mph82%29.92 "Hg10 mi
12:20 AM63 °FClear.1 mph77%29.92 "Hg10 mi
11:50 PM
Wed, Jul 27
63 °FClear.1 mph77%29.92 "Hg10 mi
11:20 PM66 °FClear.No wind68%29.92 "Hg10 mi
10:50 PM63 °FSunny.No wind77%29.92 "Hg10 mi
10:20 PM64 °FSunny.1 mph73%29.92 "Hg10 mi
9:50 PM68 °FSunny.2 mph60%29.89 "Hg10 mi
9:20 PM72 °FSunny.2 mph53%29.89 "Hg10 mi
8:50 PM73 °FSunny.2 mph50%29.89 "Hg10 mi
8:20 PM73 °FPassing clouds.3 mph47%29.89 "HgN/A
7:50 PM75 °FSunny.7 mph44%29.89 "Hg10 mi
7:20 PM75 °FPassing clouds.8 mph44%29.89 "HgN/A
6:50 PM75 °FSunny.10 mph44%29.89 "Hg10 mi
6:20 PM75 °FPassing clouds.7 mph47%29.92 "HgN/A
5:50 PM75 °FPassing clouds.9 mph50%29.92 "HgN/A
5:20 PM77 °FPassing clouds.6 mph47%29.92 "HgN/A
4:50 PM77 °FPassing clouds.8 mph47%29.92 "HgN/A
4:20 PM75 °FScattered clouds.7 mph54%29.92 "HgN/A
3:50 PM77 °FScattered clouds.9 mph51%29.92 "HgN/A
3:20 PM77 °FScattered clouds.8 mph51%29.92 "HgN/A
Weather by CustomWeather, © 2016

See weather overviewHow to use our weather pages